User: anonymous   Login
Location: Owatonna
(44.0840°N, 93.2260°W)
Time: 02:40:31
(UTC-05:00)
Language:

Tiangong 1 - Orbit

View from above orbital plane
View from above orbital plane
View from above satellite
View from above satellite

Ground track
Ground track

The orbit data is extracted from the following two-line orbital elements,

1 37820U 11053A   14298.79266340  .00066968  00000-0  51361-3 0  5148
2 37820 042.7695 244.7683 0007491 176.8849 268.2385 15.71147594176555
Epoch (UTC): 25 October 2014 19:01:26
Eccentricity: 0.0007491
inclination: 42.7695°
perigee height: 350 km
apogee height: 360 km
right ascension of ascending node: 244.7683°
argument of perigee: 176.8849°
revolutions per day: 15.71147594
mean anomaly at epoch: 268.2385°
orbit number at epoch: 17655

The dashed part of the orbit path shows where the satellite is in the earth's shadow,  

DLR